Simultaneous Nadir Overpasses (SNOs) Predictions

Prediction of SNOs between TERRA and METOP-C Satellite Orbit:

Table of predicted SNOs for the next 14.0 days since TLE Epoch: 12/3/2022
Index Date (TERRA) Time (TERRA) Lat,Lon (TERRA) SZA (TERRA ) Date (METOP-C) Time (METOP-C) Lat,Lon (METOP-C) SZA (METOP-C ) Distance(km) Time Diff (sec)
1 12/04/2022 07:20:30 80.98, 106.49 105.10 12/04/2022 07:19:41 80.99, 106.62 105.10 2.17 49
2 12/04/2022 08:09:53 -81.00, -85.65 74.86 12/04/2022 08:10:21 -81.00, -85.75 74.86 1.67 28
3 12/06/2022 23:32:12 80.97,-136.64 105.38 12/06/2022 23:31:22 80.97,-136.62 105.36 0.59 50
4 12/07/2022 00:21:34 -81.01, 31.56 74.54 12/07/2022 00:22:00 -81.01, 31.71 74.51 2.60 26
5 12/09/2022 15:43:53 80.97, -19.53 105.63 12/09/2022 15:43:02 80.97, -19.53 105.61 0.02 51
6 12/09/2022 16:33:15 -81.01, 148.67 74.28 12/09/2022 16:33:40 -81.01, 148.76 74.27 1.51 25
7 12/12/2022 07:55:34 80.97, 97.48 105.82 12/12/2022 07:54:42 80.97, 97.52 105.81 0.68 52
8 12/12/2022 08:44:56 -81.01, -94.32 74.10 12/12/2022 08:45:20 -81.01, -94.23 74.08 1.65 24
9 12/15/2022 00:07:14 80.96,-145.60 105.94 12/15/2022 00:06:21 80.97,-145.47 105.94 2.61 53



Historial Predications of SNOs between TERRA and METOP-C
